Weather in Mukhtolovo

Russia / Nizhny Novgorod Oblast'     55°27′57″N   43°11′46″E
temp.,
°C
wind,
m/s
gust,
m/s
humid.,
%
clouds,
%
prec.,
mm/h
press.,
hPa
HPBL,
m
11 april, sun
sun1100:00−2ese119830 0.0 102711
03:00−2ne119629 0.0 102811
06:00−1ene11885 0.0 102916
09:00+7e11575 0.0 1030281
12:00+11nne124486 0.0 1030917
15:00+11ne1243100 0.0 10311087
18:00+8ene2267100 0.0 103229
21:00+5e2481100 0.0 103463
12 april, mon
mon1200:00+3ene238583 0.0 103554
03:00+2ene398799 0.0 1035160
06:00+2ene31283100 0.0 1035299
09:00+5e51368100 0.0 1035473
12:00+7e51065100 0.0 1035444
15:00+11e6975100 0.0 1033616
18:00+9ese51089100 0.0 1032443
21:00+7ese4119785 0.0 1032243
13 april, tue
tue1300:00+7ese3119662 0.0 1031210
03:00+7se389398 0.0 1030122
06:00+7se399057 0.0 1030160
09:00+13sse4963100 0.0 1029362
12:00+17s5741100 0.0 1028931
15:00+18s5735100 0.0 10271513
18:00+15sse385247 0.0 1026188
21:00+11sse3106737 0.0 1027163
14 april, wed
wed1400:00+10s3127129 0.0 1027225
03:00+8s38755 0.0 1027131
06:00+8sse35745 0.0 102684
09:00+14sse46515 0.0 1026326
12:00+18s46395 0.0 10241021
15:00+19s453599 0.0 10231422
18:00+16s235013 0.0 102241
21:00+11sse226484 0.0 102218
15 april, thu
thu1500:00+9sse226787 0.0 102213
03:00+8sse2270100 0.0 102115
06:00+8sse227396 0.0 102029
09:00+13s2356100 0.0 1019274
12:00+16s2345100 0.0 1018677
15:00+18s123995 0.0 10161295
18:00+16ne115094 0.0 101511
21:00+11ne226095 0.0 101410